Location: Kott?ru
(16.6209°N, 80.6208°E)
Time: 04:14:59
(UTC+00:00)

Hubble Space Telescope - Visible Passes

Search period start: 03 February 2023 00:00
Search period end: 13 February 2023 00:00
Orbit: 529 x 532 km, 28.5° (Epoch: 02 February)

Date Brightness Start Highest point End Pass type
(mag) Time Alt. Az. Time Alt. Az. Time Alt. Az.
03 Feb 1.3 00:07:30 22° NW 00:09:51 48° NNE 00:13:49 10° E visible
03 Feb 1.0 23:55:14 35° NW 23:56:46 61° NNE 00:00:48 10° ESE visible
04 Feb 0.7 23:43:00 61° NW 23:43:39 79° NNE 23:47:44 10° ESE visible
05 Feb 0.8 23:30:48 73° SSE 23:30:48 73° SSE 23:34:35 10° ESE visible
06 Feb 3.4 14:46:24 10° SW 14:47:21 16° SW 14:47:21 16° SW visible
06 Feb 1.9 23:18:38 39° SE 23:18:38 39° SE 23:21:23 10° SE visible
07 Feb 3.0 12:54:49 10° S 12:56:24 12° SSE 12:57:58 10° SE visible
07 Feb 2.5 14:33:08 10° SW 14:35:13 28° SW 14:35:13 28° SW visible
07 Feb 2.9 23:06:28 22° SE 23:06:28 22° SE 23:08:06 10° SE visible
08 Feb 1.4 14:19:56 10° WSW 14:23:04 51° WSW 14:23:04 51° WSW visible
08 Feb 3.6 22:54:19 12° SE 22:54:19 12° SE 22:54:43 10° SE visible
09 Feb 0.7 14:06:48 10° WSW 14:10:52 74° NNW 14:10:53 74° NNW visible
10 Feb 1.0 13:53:42 10° WSW 13:57:42 57° NNW 13:58:41 43° NNE visible
11 Feb 1.4 13:40:38 10° W 13:44:34 45° NNW 13:46:26 26° NE visible
12 Feb 1.8 13:27:37 10° W 13:31:25 37° NNW 13:34:09 17° NE visible
